Regional Weather Roundup
Issued by NWS

Home | Current Version | Previous Version | Text Only | Print | Product List | Glossary On
Versions: 1 2 3 4 5 6 7 8 9 10 11 12 13 14 15 16 17 18 19 20 21 22 23 24 25 26 27 28 29 30 31 32 33 34 35 36 37 38 39 40 41 42 43 44 45 46 47 48 49 50
272
ASUS43 KLMK 050102
RWRKY
KENTUCKY REGIONAL WEATHER ROUNDUP
NATIONAL WEATHER SERVICE LOUISVILLE KY
900 PM EDT WED MAY 04 2016

NOTE "FAIR" INDICATES FEW OR NO CLOUDS BELOW 12,000 FEET
WITH NO SIGNIFICANT WEATHER AND/OR OBSTRUCTIONS TO VISIBILITY.

KYZ001>023-026-027-061>063-070>075-050200-
WESTERN AND SOUTH CENTRAL KENTUCKY

CITY           SKY/WX    TMP DP  RH WIND       PRES   REMARKS
PADUCAH        MOCLDY    61  41  47 N9G20     29.83R
HENDERSON      PTCLDY    57  36  44 NW13G20   29.82R
OWENSBORO      PTCLDY    55  45  69 NW10      29.82R
HOPKINSVILLE   MOCLDY    58  42  56 N10       29.81R
BOWLING GREEN  PTCLDY    59  40  49 NW8       29.78R
GLASGOW        NOT AVBL
$$

KYZ024-025-028>034-038-045-046-053-050200-
NORTH CENTRAL KENTUCKY

CITY           SKY/WX    TMP DP  RH WIND       PRES   REMARKS
LOUISVILLE/SDF PTCLDY    54  39  57 NW9       29.77R
LOUISVILLE/LOU CLEAR     54  40  59 N5        29.77R
FORT KNOX      CLOUDY    53  42  65 NW12      29.75R
$$

KYZ035>037-039>044-047>052-055>060-089>105-050200-
NORTHEAST KENTUCKY

CITY           SKY/WX    TMP DP  RH WIND       PRES   REMARKS
LEXINGTON      CLEAR     51  40  65 N9        29.74R
COVINGTON      PTCLDY    49  37  63 N9        29.74R
FRANKFORT      MOCLDY    54  38  54 N13G18    29.74R
$$

KYZ054-064>069-076>088-106>120-050200-
SOUTHEAST KENTUCKY

CITY           SKY/WX    TMP DP  RH WIND       PRES   REMARKS
JACKSON        MOCLDY    48  44  86 NW5       29.72R
LONDON         MOCLDY    48  45  89 CALM      29.74R
SOMERSET       NOT AVBL
MIDDLESBORO    CLOUDY    47  47  99 NW3       29.75F
MONTICELLO     CLOUDY    53  45  74 N12       29.77R
$$





USA.gov is the U.S. government's official web portal to all federal, state and local government web resources and services.